Simultaneous Nadir Overpasses (SNOs) Predictions

Prediction of SNOs between METOP-B and NOAA-19 Satellite Orbit:

Table of predicted SNOs for the next 14.0 days since TLE Epoch: 3/21/2014
Index Date (METOP-B) Time (METOP-B) Lat,Lon (METOP-B) SZA (METOP-B ) Date (NOAA-19) Time (NOAA-19) Lat,Lon (NOAA-19) SZA (NOAA-19 ) Distance(km) Time Diff (sec)
1 03/24/2014 00:17:47 74.25, 171.18 72.95 03/24/2014 00:16:38 74.24, 169.11 73.02 62.41 69
2 03/24/2014 01:08:38 -73.81, -22.59 107.48 03/24/2014 01:07:35 -73.79, -22.52 107.48 2.43 63
3 03/24/2014 01:59:18 73.78, 144.69 72.49 03/24/2014 01:58:33 73.81, 144.69 72.53 3.17 45
4 03/24/2014 02:50:00 -73.79, -47.98 107.53 03/24/2014 02:49:39 -73.80, -48.06 107.50 3.05 21
5 03/24/2014 03:40:40 73.76, 119.31 72.44 03/24/2014 03:40:36 73.77, 119.28 72.45 1.31 4
6 03/24/2014 04:31:22 -73.77, -73.36 107.57 03/24/2014 04:31:42 -73.76, -73.47 107.58 3.40 20
7 03/24/2014 05:22:02 73.74, 93.92 72.40 03/24/2014 05:22:39 73.73, 93.86 72.38 2.16 37
8 03/24/2014 06:12:45 -73.70, -98.87 107.66 03/24/2014 06:13:45 -73.72, -98.89 107.65 2.71 60
9 03/24/2014 07:03:27 73.57, 68.18 72.21 03/24/2014 07:04:40 73.59, 68.68 72.20 15.99 73
10 04/03/2014 05:14:52 74.15, 96.66 68.86 04/03/2014 05:13:41 74.16, 95.17 68.92 45.23 71
11 04/03/2014 06:05:41 -73.83, -96.80 111.45 04/03/2014 06:04:41 -73.85, -96.82 111.43 1.57 60
12 04/03/2014 06:56:20 73.83, 70.54 68.54 04/03/2014 06:55:38 73.83, 70.49 68.54 1.75 42
13 04/03/2014 07:47:03 -73.81,-122.19 111.50 04/03/2014 07:46:44 -73.81,-122.24 111.50 1.58 19
14 04/03/2014 08:37:43 73.76, 45.03 68.45 04/03/2014 08:37:41 73.79, 45.07 68.47 3.05 2
15 04/03/2014 09:28:26 -73.74,-147.70 111.59 04/03/2014 09:28:47 -73.77,-147.66 111.57 3.37 21
16 04/03/2014 10:19:05 73.74, 19.64 68.40 04/03/2014 10:19:44 73.75, 19.65 68.40 0.95 39
17 04/03/2014 11:09:48 -73.72,-173.09 111.64 04/03/2014 11:10:50 -73.73,-173.08 111.64 1.27 62
18 04/03/2014 12:00:32 73.47, -6.33 68.12 04/03/2014 12:01:43 73.51, -5.30 68.12 33.03 71




NCC Satellite Simultaneous Nadir Overpasses (SNOs) Prediction Service
